Elmira, NY

12:43 AM EDT on June 27, 2017 (GMT -0400)
Elmira-Corning Regional

Weather History for KELM - June, 2014

Change the Weather History Date:

Tuesday, June 17, 2014

  Actual Average Record
Temperature  
Mean Temperature 76 °F -  
Max Temperature 88 °F 77 °F 94 °F (1967)
Min Temperature 63 °F 52 °F 35 °F (1980)
Cooling Degree Days 10    
Growing Degree Days 26 (Base 50)    
Moisture  
Dew Point 66 °F    
Average Humidity 83    
Maximum Humidity 100    
Minimum Humidity 49    
Precipitation  
Precipitation 0.02 in - - ()
Sea Level Pressure  
Sea Level Pressure 29.99 in    
Wind  
Wind Speed 4 mph (WSW)    
Max Wind Speed 15 mph    
Max Gust Speed 24 mph    
Visibility 5 miles    
Events Fog , Rain , Thunderstorm    
Averages and records for this station are not official NWS values.
T = Trace of Precipitation, MM = Missing Value Source: NWS Daily Summary

Daily Weather History Graph

Daily Weather History Graph

Search for Another Location

Airport or City:

Trip Planner

Search our weather history database for the weather conditions in past years. The results will help you decide how hot, cold, wet, or windy it might be!

Date:

Astronomy

Jun. 17, 2014 Rise Set
Actual Time 5:30 AM EDT 8:46 PM EDT
Civil Twilight 4:56 AM EDT 9:20 PM EDT
Nautical Twilight 4:11 AM EDT 10:05 PM EDT
Astronomical Twilight 3:17 AM EDT 10:59 PM EDT
Moon No Moon Rise 10:47 AM EDT (6/17)
Length of Visible Light 16h 24m
Length of Day
15h 15m
Waning Gibbous, 73% of the Moon is Illuminated
Jun 17
Waning Gibbous
Jun 19
Last Quarter
Jun 27
New
Jul 5
First Quarter
Jul 12
Full

Hourly Weather History & Observations

Time (EDT) Temp. Heat Index Dew Point Humidity Pressure Visibility Wind Dir Wind Speed Gust Speed Precip Events Conditions
12:13 AM 66.2 °F - 66.2 °F 100% 30.05 in 1.8 mi Calm Calm - N/A   Clear
12:43 AM 66.2 °F - 66.2 °F 100% 30.05 in 0.5 mi Calm Calm - N/A Fog Fog
12:53 AM 66.0 °F - 64.9 °F 96% 30.04 in 0.2 mi Calm Calm - N/A Fog Fog
1:12 AM 64.4 °F - 64.4 °F 100% 30.06 in 0.2 mi Calm Calm - N/A Fog Fog
1:44 AM 66.2 °F - 66.2 °F 100% 30.06 in 0.8 mi West 3.5 mph - N/A   Mostly Cloudy
1:48 AM 64.4 °F - 64.4 °F 100% 30.06 in 2.0 mi West 4.6 mph - N/A   Mostly Cloudy
1:53 AM 64.0 °F - 64.0 °F 100% 30.04 in 3.0 mi West 3.5 mph - N/A   Mostly Cloudy
2:02 AM 66.2 °F - 66.2 °F 100% 30.06 in 5.0 mi West 3.5 mph - N/A   Mostly Cloudy
2:06 AM 66.2 °F - 66.2 °F 100% 30.06 in 1.8 mi WSW 3.5 mph - N/A   Mostly Cloudy
2:15 AM 66.2 °F - 66.2 °F 100% 30.06 in 0.2 mi SW 4.6 mph - N/A Fog Fog
2:53 AM 66.0 °F - 66.0 °F 100% 30.03 in 0.2 mi West 3.5 mph - N/A Fog Fog
3:53 AM 64.9 °F - 64.9 °F 100% 30.03 in 0.2 mi Calm Calm - N/A Fog Fog
4:53 AM 64.9 °F - 64.9 °F 100% 30.04 in 0.2 mi WNW 3.5 mph - 0.01 in Fog Fog
5:53 AM 63.0 °F - 63.0 °F 100% 30.06 in 0.2 mi WNW 3.5 mph - N/A Fog Fog
6:39 AM 64.4 °F - 64.4 °F 100% 30.08 in 0.1 mi Calm Calm - N/A Fog Fog
6:53 AM 64.0 °F - 64.0 °F 100% 30.06 in 0.1 mi Calm Calm - N/A Fog Fog
7:44 AM 66.2 °F - 66.2 °F 100% 30.09 in 1.0 mi SSW 4.6 mph - N/A   Mostly Cloudy
7:53 AM 66.0 °F - 66.0 °F 100% 30.08 in 1.0 mi SSW 3.5 mph - N/A   Mostly Cloudy
8:00 AM 66.2 °F - 66.2 °F 100% 30.09 in 4.0 mi SW 4.6 mph - N/A   Scattered Clouds
8:53 AM 73.0 °F - 66.9 °F 81% 30.08 in 10.0 mi WSW 6.9 mph - N/A   Clear
9:53 AM 75.9 °F - 66.9 °F 74% 30.06 in 10.0 mi South 4.6 mph - N/A   Clear
10:53 AM 80.1 °F 82.7 °F 68.0 °F 67% 30.04 in 10.0 mi Variable 5.8 mph - N/A   Clear
11:53 AM 82.9 °F 86.5 °F 69.1 °F 63% 30.02 in 10.0 mi Variable 3.5 mph - N/A   Clear
12:53 PM 86.0 °F 89.4 °F 68.0 °F 55% 30.01 in 10.0 mi WSW 8.1 mph - N/A   Scattered Clouds
1:53 PM 87.1 °F 89.9 °F 66.9 °F 51% 29.97 in 10.0 mi SSW 8.1 mph - N/A   Mostly Cloudy
3:53 PM 87.1 °F 89.9 °F 66.9 °F 51% 29.91 in 10.0 mi South 12.7 mph - N/A   Partly Cloudy
4:53 PM 88.0 °F 90.7 °F 66.9 °F 49% 29.88 in 10.0 mi SW 15.0 mph - N/A   Clear
5:53 PM 87.1 °F 89.9 °F 66.9 °F 51% 29.86 in 8.0 mi SW 13.8 mph 24.2 mph N/A   Partly Cloudy
6:53 PM 84.9 °F 88.8 °F 69.1 °F 59% 29.83 in 7.0 mi SSW 11.5 mph 20.7 mph N/A   Clear
7:53 PM 84.0 °F 87.8 °F 69.1 °F 61% 29.84 in 6.0 mi SW 10.4 mph - N/A   Haze
8:53 PM 82.0 °F 84.9 °F 68.0 °F 62% 29.81 in 7.0 mi SW 10.4 mph - N/A   Clear
9:53 PM 82.0 °F 84.5 °F 66.9 °F 60% 29.81 in 8.0 mi SW 11.5 mph 21.9 mph N/A   Partly Cloudy
10:53 PM 81.0 °F 83.3 °F 66.9 °F 62% 29.81 in 7.0 mi West 13.8 mph 23.0 mph 0.00 in Rain Light Rain
11:05 PM 78.8 °F - 68.0 °F 69% 29.85 in 8.0 mi West 15.0 mph 21.9 mph 0.00 in Rain , Thunderstorm Light Rain
11:43 PM 75.2 °F - 69.8 °F 83% 29.86 in 7.0 mi WSW 10.4 mph - 0.01 in   Mostly Cloudy
11:53 PM 75.0 °F - 69.1 °F 82% 29.83 in 7.0 mi WSW 9.2 mph - 0.01 in   Mostly Cloudy